Home > Weather > San Francisco > Past weeks

Flag for USA Weather for the Past 2 Weeks in San Francisco, California, USA

Now
63 °F

Broken clouds.


Feels Like: 63 °F
Forecast: 56 / 63 °F
Wind: 14 mph from Southwest

Location: San Francisco International Airport

Current Time: May 5, 2016 at 1:57:12 PM

Latest Report: May 5, 2016 at 12:56 PM


Visibility: 10 mi

Pressure: 29.86 "Hg

Humidity: 73%

Dew Point: 54 °F

Location of San FranciscoLocation

Historic Weather in San Francisco — Graph

°F

San Francisco Temperature Yesterday

Maximum temperature yesterday: 66 °F (at 2:56 PM)
Minimum temperature yesterday: 52 °F (at 12:56 AM)
Average temperature yesterday: 58 °F

High & Low Weather Summary for the Past Weeks

 TemperatureHumidityPressure
High80 °F (May 1, 2:56 PM)100% (May 3, 1:56 AM)30.22 "Hg (May 3, 1:56 AM)
Low47 °F (Apr 25, 5:56 AM)28% (May 1, 2:56 PM)29.80 "Hg (May 1, 4:56 AM)
Average58 °F71%29.97 "Hg
* Reported Apr 20 12:56 PM — May 5 12:56 PM, San Francisco, Weather by CustomWeather, © 2016

Note: Actual official high and low records may vary slightly from our data, if they occured in-between our weather recording intervals... More about our weather records

Advertising

San Francisco Weather History for the Previous 24 Hours

Scroll right to see more
 ConditionsComfort  
Time TempWeatherWind HumidityBarometerVisibility
12:56 PM
Thu, May 5
63 °FBroken clouds.14 mph73%29.86 "Hg10 mi
11:56 AM63 °FBroken clouds.10 mph73%29.86 "Hg10 mi
10:56 AM62 °FBroken clouds.9 mph75%29.86 "Hg10 mi
9:56 AM61 °FMore clouds than sun.8 mph78%29.86 "Hg10 mi
8:56 AM60 °FMostly cloudy.3 mph83%29.86 "Hg10 mi
7:56 AM58 °FOvercast.3 mph90%29.86 "Hg10 mi
6:56 AM56 °FOvercast.5 mph93%29.86 "Hg10 mi
5:56 AM56 °FPassing clouds.3 mph93%29.86 "Hg10 mi
4:56 AM56 °FPassing clouds.7 mph93%29.86 "Hg10 mi
3:56 AM57 °FPassing clouds.6 mph93%29.86 "Hg10 mi
2:56 AM57 °FPartly cloudy.5 mph90%29.86 "Hg10 mi
1:56 AM57 °FPassing clouds.7 mph90%29.87 "Hg10 mi
12:56 AM58 °FOvercast.7 mph84%29.88 "Hg10 mi
11:56 PM
Wed, May 4
59 °FOvercast.7 mph81%29.90 "Hg10 mi
10:56 PM58 °FOvercast.12 mph84%29.90 "Hg10 mi
9:56 PM58 °FPassing clouds.14 mph84%29.89 "Hg10 mi
8:56 PM58 °FScattered clouds.8 mph84%29.87 "Hg10 mi
7:56 PM59 °FPartly sunny.10 mph81%29.85 "Hg10 mi
6:56 PM60 °FPartly sunny.15 mph80%29.85 "Hg10 mi
5:56 PM61 °FPartly sunny.14 mph75%29.86 "Hg10 mi
4:56 PM66 °FPartly sunny.16 mph65%29.85 "Hg10 mi
3:56 PM65 °FBroken clouds.9 mph61%29.85 "Hg10 mi
2:56 PM66 °FBroken clouds.10 mph61%29.88 "Hg10 mi
1:58 PM65 °FBroken clouds.8 mph63%29.89 "Hg10 mi
Weather by CustomWeather, © 2016

See weather overviewHow to use our weather pages